Tracking 30685 objects as of 18-Jun-2025
HD Live streaming from Space Station
objects crossing your sky now

NOAA 17 DEB

Track NOAA 17 DEB now!
10-day predictions


NORAD ID: 48752
Int'l Code: 2002-032CN
Perigee: 579.1 km
Apogee: 597.9 km
Inclination: 98.7 °
Period: 96.3 minutes
Semi major axis: 6959 km
RCS: Unknown
Launch date: June 24, 2002
Source: United States (US)
Launch site: AIR FORCE WESTERN TEST RANGE (AFWTR)

Note: This is SATELLITE DEBRIS
Your satellite tracking list
Your tracking list is empty




NASA's NSSDC Master Catalog

Two Line Element Set (TLE):
1 48752U 02032CM  25168.84554708  .00033733  00000-0  30467-2 0  9997
2 48752  98.7075 189.1917 0013564 339.3800  20.6869 14.95328576223485
Source of the keplerian elements: AFSPC